This is the latest recevied weather packets stored in our database for station/object JA7ZQY-10. If no packets are shown the sender has not sent any weather packets the latest 10 day(s).
| Time | Temp. | Humidity | Pressure | Rain* | Wind** | Luminosity | Snow |
|---|---|---|---|---|---|---|---|
| 1787868967 | 23.33° C | 72% | 1007.4 hPa | 0 mm | - | - | - |
| 1787868367 | 23.33° C | 71% | 1007.4 hPa | 0 mm | - | - | - |
| 1787867768 | 22.78° C | 72% | 1007.5 hPa | 0 mm | - | - | - |
| 1787867168 | 22.78° C | 71% | 1007.5 hPa | 0.25 mm | - | - | - |
| 1787866567 | 22.22° C | 77% | 1007.6 hPa | 2.79 mm | - | - | - |
| 1787865968 | 21.67° C | 79% | 1007.6 hPa | 2.79 mm | - | - | - |
| 1787865368 | 21.67° C | 79% | 1007.5 hPa | 2.79 mm | - | - | - |
| 1787864767 | 21.67° C | 80% | 1007.5 hPa | 2.79 mm | - | - | - |
| 1787864168 | 21.67° C | 82% | 1007.4 hPa | 2.79 mm | - | - | - |
| 1787863568 | 21.11° C | 85% | 1007.5 hPa | 2.54 mm | - | - | - |
| 1787862969 | 20.56° C | 87% | 1007.4 hPa | 0 mm | - | - | - |
| 1787862368 | 20.56° C | 91% | 1007.4 hPa | 0 mm | - | - | - |
| 1787861769 | 20.56° C | 92% | 1007.1 hPa | 0 mm | - | - | - |
| 1787861168 | 20.56° C | 93% | 1007.2 hPa | 0 mm | - | - | - |
| 1787860567 | 20.56° C | 92% | 1007.1 hPa | 0 mm | - | - | - |
| 1787859969 | 20.56° C | 90% | 1007 hPa | 0 mm | - | - | - |
| 1787859370 | 20.56° C | 88% | 1006.9 hPa | 0 mm | - | - | - |
| 1787858769 | 21.11° C | 88% | 1006.5 hPa | 0 mm | - | - | - |
| 1787858168 | 21.11° C | 88% | 1006.4 hPa | 0 mm | - | - | - |
| 1787857568 | 21.11° C | 88% | 1006.5 hPa | 0 mm | - | - | - |
| 1787856969 | 21.11° C | 88% | 1006.3 hPa | 0 mm | - | - | - |
| 1787856369 | 21.67° C | 88% | 1006.1 hPa | 0 mm | - | - | - |
| 1787855768 | 21.67° C | 89% | 1006.2 hPa | 0 mm | - | - | - |
| 1787855168 | 21.67° C | 91% | 1006.1 hPa | 0 mm | - | - | - |
| 1787854569 | 21.67° C | 90% | 1006.3 hPa | 0 mm | - | - | - |
* Rain latest hour (hover to see other rain measurements)
** Current wind speed in m/s (hover to see current wind gust speed)